Weather History for Poplar Bluff, MO

Change the Weather History Date:

Saturday, December 22, 2012

  Actual Average Record
Temperature  
Mean Temperature 34 °F -  
Max Temperature 48 °F 44 °F 72 °F (1931)
Min Temperature 21 °F 23 °F -10 °F (1989)
Degree Days  
Heating Degree Days 30    
Moisture  
Dew Point 23 °F    
Average Humidity 68    
Maximum Humidity 85    
Minimum Humidity 37    
Precipitation  
Precipitation 0.00 in - - ()
Sea Level Pressure  
Sea Level Pressure 30.22 in    
Wind  
Wind Speed 2 mph (SSE)    
Max Wind Speed 10 mph    
Max Gust Speed -    
Visibility 10 miles    
Events      
Averages and records for this station are not official NWS values.
T = Trace of Precipitation, MM = Missing Value Source: NWS Daily Summary

Daily Weather History Graph

Daily Weather History Graph

Search for Another Location

Airport:

Trip Planner

Search our weather history database for the weather conditions in past years. The results will help you decide how hot, cold, wet, or windy it might be!

Date:

Astronomy

Dec. 22, 2012 Rise Set
Actual Time 7:10 AM CST 4:49 PM CST
Civil Twilight 6:41 AM CST 5:18 PM CST
Nautical Twilight 6:09 AM CST 5:50 PM CST
Astronomical Twilight 5:37 AM CST 6:22 PM CST
Moon 1:02 PM CST (12/22) 2:01 AM CST (12/22)
Length of Visible Light 10h 36m
Length of Day
9h 38m
Waxing Gibbous, 74% of the Moon is Illuminated
Dec 22
Waxing Gibbous
Dec 28
Full
Jan 4
Last Quarter
Jan 11
New
Jan 18
First Quarter

Hourly Weather History & Observations

Time (CST) Temp. Windchill Dew Point Humidity Pressure Visibility Wind Dir Wind Speed Gust Speed Precip Events Conditions
12:53 AM 25.0 °F - 18.0 °F 75% 30.32 in 10.0 mi Calm Calm - N/A   Clear
1:53 AM 24.1 °F - 19.0 °F 81% 30.32 in 10.0 mi Calm Calm - N/A   Clear
2:53 AM 23.0 °F - 17.1 °F 78% 30.33 in 10.0 mi Calm Calm - N/A   Clear
3:53 AM 23.0 °F - 18.0 °F 81% 30.34 in 10.0 mi Calm Calm - N/A   Clear
4:53 AM 23.0 °F - 18.0 °F 81% 30.33 in 10.0 mi Calm Calm - N/A   Clear
5:53 AM 21.9 °F - 18.0 °F 85% 30.34 in 10.0 mi Calm Calm - N/A   Clear
6:53 AM 21.9 °F - 18.0 °F 85% 30.34 in 10.0 mi Calm Calm - N/A   Clear
7:53 AM 24.1 °F - 19.0 °F 81% 30.35 in 10.0 mi Calm Calm - N/A   Clear
8:53 AM 30.0 °F - 24.1 °F 79% 30.33 in 10.0 mi Calm Calm - N/A   Clear
9:53 AM 36.0 °F 28.5 °F 19.9 °F 52% 30.32 in 10.0 mi SE 10.4 mph - N/A   Clear
10:53 AM 39.0 °F 33.4 °F 19.0 °F 45% 30.31 in 10.0 mi SSE 8.1 mph - N/A   Clear
11:53 AM 42.1 °F 38.4 °F 19.0 °F 40% 30.27 in 10.0 mi South 5.8 mph - N/A   Clear
12:53 PM 45.0 °F 41.2 °F 21.0 °F 39% 30.23 in 10.0 mi South 6.9 mph - N/A   Clear
1:53 PM 46.9 °F - 21.9 °F 37% 30.19 in 10.0 mi South 4.6 mph - N/A   Clear
2:53 PM 48.0 °F - 26.1 °F 42% 30.16 in 10.0 mi SE 6.9 mph - N/A   Clear
3:53 PM 48.0 °F - 28.0 °F 46% 30.14 in 10.0 mi SE 8.1 mph - N/A   Clear
4:53 PM 43.0 °F 40.3 °F 30.0 °F 60% 30.13 in 10.0 mi SSE 4.6 mph - N/A   Clear
5:53 PM 37.0 °F - 30.0 °F 76% 30.12 in 10.0 mi Calm Calm - N/A   Clear
6:53 PM 34.0 °F - 30.0 °F 85% 30.10 in 10.0 mi Calm Calm - N/A   Clear
7:53 PM 33.1 °F - 28.0 °F 82% 30.09 in 10.0 mi Calm Calm - N/A   Clear
8:53 PM 32.0 °F - 28.0 °F 85% 30.08 in 10.0 mi Calm Calm - N/A   Clear
9:53 PM 39.0 °F 36.8 °F 30.9 °F 73% 30.06 in 10.0 mi South 3.5 mph - N/A   Clear
10:53 PM 37.0 °F - 30.0 °F 76% 30.06 in 10.0 mi Calm Calm - N/A   Clear
11:53 PM 42.1 °F 40.2 °F 30.0 °F 62% 30.04 in 10.0 mi South 3.5 mph - N/A   Clear